Weather History for KLND - March, 2013

Change the Weather History Date:

Tuesday, March 26, 2013

  Actual Average Record
Temperature  
Mean Temperature 36 °F 39 °F  
Max Temperature 49 °F 51 °F 69 °F (1895)
Min Temperature 23 °F 27 °F -6 °F (1955)
Degree Days  
Heating Degree Days 29 26  
Month to date heating degree days 794 787  
Since 1 July heating degree days 6163 6491  
Cooling Degree Days 0 0  
Month to date cooling degree days 0 0  
Year to date cooling degree days 0 0  
Moisture  
Dew Point 14 °F    
Average Humidity 45    
Maximum Humidity 62    
Minimum Humidity 27    
Precipitation  
Precipitation 0.00 in 0.05 in 0.67 in (2009)
Month to date precipitation 0.42 0.92  
Year to date precipitation 2.40 1.91  
Snow  
Snow 0.00 in 0.60 in - ()
Month to date snowfall 5.1 13.1  
Since 1 July snowfall 57.3 66.7  
Snow Depth 0.00 in    
Sea Level Pressure  
Sea Level Pressure 29.97 in    
Wind  
Wind Speed 5 mph (South)    
Max Wind Speed 12 mph    
Max Gust Speed 14 mph    
Visibility 10 miles    
Events      
T = Trace of Precipitation, MM = Missing Value Source: NWS Daily Summary

Daily Weather History Graph

Daily Weather History Graph

Search for Another Location

Airport or City:

Trip Planner

Search our weather history database for the weather conditions in past years. The results will help you decide how hot, cold, wet, or windy it might be!

Date:

Astronomy

Mar. 26, 2013 Rise Set
Actual Time 7:07 AM MDT 7:34 PM MDT
Civil Twilight 6:38 AM MDT 8:02 PM MDT
Nautical Twilight 6:05 AM MDT 8:36 PM MDT
Astronomical Twilight 5:30 AM MDT 9:10 PM MDT
Moon 7:15 PM MDT (3/26) 6:25 AM MDT (3/26)
Length of Visible Light 13h 24m
Length of Day
12h 27m
Waxing Gibbous, 99% of the Moon is Illuminated
Mar 26
Waxing Gibbous
Mar 27
Full
Apr 2
Last Quarter
Apr 10
New
Apr 18
First Quarter

Hourly Weather History & Observations

Time (MDT) Temp. Windchill Dew Point Humidity Pressure Visibility Wind Dir Wind Speed Gust Speed Precip Events Conditions
12:53 AM 28.0 °F 24.2 °F 7.0 °F 41% 30.07 in 10.0 mi ENE 3.5 mph - N/A   Clear
1:53 AM 27.0 °F - 7.0 °F 43% 30.06 in 10.0 mi Calm Calm - N/A   Clear
2:53 AM 28.0 °F 20.8 °F 9.0 °F 45% 30.03 in 10.0 mi SW 6.9 mph - N/A   Clear
3:53 AM 28.0 °F 24.2 °F 9.0 °F 45% 30.01 in 10.0 mi SW 3.5 mph - N/A   Partly Cloudy
4:53 AM 27.0 °F - 10.0 °F 49% 30.00 in 10.0 mi Calm Calm - N/A   Clear
5:53 AM 25.0 °F - 14.0 °F 63% 30.01 in 10.0 mi Calm Calm - N/A   Clear
6:53 AM 26.1 °F - 10.9 °F 53% 30.02 in 10.0 mi Calm Calm - N/A   Clear
7:53 AM 27.0 °F 21.6 °F 9.0 °F 47% 30.03 in 10.0 mi SW 4.6 mph - N/A   Clear
8:53 AM 30.0 °F - 14.0 °F 51% 30.02 in 10.0 mi Calm Calm - N/A   Partly Cloudy
9:53 AM 35.1 °F 31.0 °F 15.1 °F 44% 30.00 in 10.0 mi East 4.6 mph - N/A   Partly Cloudy
10:53 AM 39.9 °F 36.7 °F 15.1 °F 36% 29.97 in 10.0 mi SE 4.6 mph - N/A   Overcast
11:53 AM 42.1 °F 40.2 °F 10.9 °F 28% 29.96 in 10.0 mi SSE 3.5 mph - N/A   Overcast
12:53 PM 43.0 °F 39.5 °F 12.9 °F 30% 29.94 in 10.0 mi SE 5.8 mph - N/A   Clear
1:53 PM 45.0 °F 42.6 °F 15.1 °F 30% 29.93 in 10.0 mi ENE 4.6 mph - N/A   Clear
2:53 PM 46.9 °F - 16.0 °F 29% 29.90 in 10.0 mi SSE 4.6 mph - N/A   Overcast
3:53 PM 46.9 °F - 17.1 °F 30% 29.88 in 10.0 mi SSW 8.1 mph - N/A   Partly Cloudy
4:53 PM 46.9 °F - 16.0 °F 29% 29.88 in 10.0 mi Calm Calm - N/A   Clear
5:53 PM 46.0 °F 41.0 °F 16.0 °F 30% 29.90 in 10.0 mi NE 10.4 mph - N/A   Clear
6:53 PM 44.1 °F 40.1 °F 16.0 °F 32% 29.93 in 10.0 mi NE 6.9 mph - N/A   Mostly Cloudy
7:53 PM 41.0 °F 39.0 °F 17.1 °F 38% 29.95 in 10.0 mi SW 3.5 mph - N/A   Mostly Cloudy
8:53 PM 37.9 °F 31.5 °F 21.0 °F 51% 29.96 in 10.0 mi WSW 9.2 mph - N/A   Overcast
9:53 PM 35.1 °F 30.1 °F 21.9 °F 59% 29.97 in 10.0 mi SSW 5.8 mph - N/A   Clear
10:53 PM 34.0 °F 28.8 °F 21.0 °F 59% 29.96 in 10.0 mi West 5.8 mph - N/A   Clear
11:53 PM 35.1 °F 26.9 °F 19.9 °F 54% 29.95 in 10.0 mi WSW 11.5 mph - N/A   Clear